TimeCST,TemperatureF,Dew PointF,Humidity,Sea Level PressureIn,VisibilityMPH,Wind Direction,Wind SpeedMPH,Gust SpeedMPH,PrecipitationIn,Events,Conditions,WindDirDegrees,DateUTC
12:53 AM,32.0,21.9,66,30.43,10.0,North,5.8,-,N/A,,Overcast,10,2013-11-25 06:53:00
1:53 AM,32.0,21.9,66,30.41,10.0,ENE,8.1,-,N/A,,Overcast,60,2013-11-25 07:53:00
2:53 AM,32.0,23.0,69,30.40,10.0,NE,5.8,-,N/A,,Overcast,40,2013-11-25 08:53:00
3:53 AM,32.0,21.9,66,30.38,10.0,NNE,5.8,-,N/A,,Overcast,30,2013-11-25 09:53:00
4:53 AM,32.0,21.9,66,30.36,10.0,NE,5.8,-,N/A,,Overcast,50,2013-11-25 10:53:00
5:53 AM,32.0,24.1,73,30.35,10.0,NNE,4.6,-,0.00,,Overcast,30,2013-11-25 11:53:00
6:53 AM,32.0,26.1,79,30.37,10.0,NNE,4.6,-,0.04,,Overcast,30,2013-11-25 12:53:00
7:53 AM,32.0,27.0,82,30.37,10.0,North,3.5,-,0.00,,Overcast,10,2013-11-25 13:53:00
8:53 AM,32.0,27.0,82,30.37,10.0,NE,5.8,-,0.02,,Overcast,50,2013-11-25 14:53:00
9:53 AM,32.0,28.0,85,30.36,10.0,ENE,6.9,-,0.02,,Overcast,60,2013-11-25 15:53:00
10:53 AM,32.0,28.0,85,30.32,10.0,ENE,4.6,-,0.05,,Overcast,70,2013-11-25 16:53:00
11:53 AM,33.1,28.9,85,30.30,10.0,NNE,4.6,-,0.01,Rain,Light Rain,20,2013-11-25 17:53:00
12:19 PM,33.8,28.4,81,30.26,10.0,NE,6.9,-,0.01,Rain,Light Rain,50,2013-11-25 18:19:00
12:28 PM,33.8,30.2,87,30.26,10.0,NE,6.9,-,0.01,Rain,Light Rain,40,2013-11-25 18:28:00
12:43 PM,33.8,30.2,87,30.25,10.0,NE,5.8,-,0.01,Rain,Light Rain,40,2013-11-25 18:43:00
12:53 PM,34.0,30.0,85,30.26,10.0,NNE,5.8,-,0.01,Rain,Light Rain,20,2013-11-25 18:53:00
1:04 PM,33.8,30.2,87,30.25,10.0,NE,5.8,-,0.01,Rain,Light Rain,40,2013-11-25 19:04:00
1:53 PM,33.1,30.0,89,30.24,10.0,North,5.8,-,0.01,Rain,Light Rain,10,2013-11-25 19:53:00
2:22 PM,33.8,30.2,87,30.23,10.0,NNE,8.1,-,0.00,Rain,Light Rain,20,2013-11-25 20:22:00
2:53 PM,34.0,30.9,89,30.22,9.0,NNE,6.9,-,0.02,Rain,Light Rain,20,2013-11-25 20:53:00
3:17 PM,33.8,30.2,87,30.22,10.0,North,6.9,-,0.01,Rain,Light Rain,10,2013-11-25 21:17:00
3:53 PM,34.0,32.0,92,30.22,8.0,NNE,8.1,-,0.03,Rain,Light Rain,20,2013-11-25 21:53:00
4:10 PM,33.8,30.2,87,30.22,10.0,NNE,8.1,-,0.01,Rain,Light Rain,20,2013-11-25 22:10:00
4:21 PM,33.8,30.2,87,30.23,10.0,North,8.1,-,0.01,Rain,Light Rain,360,2013-11-25 22:21:00
4:53 PM,34.0,32.0,92,30.21,10.0,North,8.1,-,0.01,,Overcast,360,2013-11-25 22:53:00
5:50 PM,33.8,30.2,87,30.20,10.0,NNE,8.1,-,N/A,,Overcast,30,2013-11-25 23:50:00
5:53 PM,34.0,30.9,89,30.20,10.0,NNE,8.1,-,N/A,,Overcast,30,2013-11-25 23:53:00
6:38 PM,33.8,30.2,87,30.20,10.0,NE,9.2,-,N/A,,Overcast,40,2013-11-26 00:38:00
6:53 PM,34.0,30.9,89,30.20,10.0,NNE,8.1,-,N/A,,Overcast,30,2013-11-26 00:53:00
7:53 PM,34.0,30.9,89,30.22,8.0,NNE,5.8,-,0.00,,Overcast,20,2013-11-26 01:53:00
8:08 PM,33.8,32.0,93,30.21,4.0,North,10.4,-,N/A,,Overcast,10,2013-11-26 02:08:00
8:53 PM,34.0,32.0,92,30.20,7.0,North,9.2,-,0.00,Rain,Light Rain,10,2013-11-26 02:53:00
9:53 PM,35.1,33.1,92,30.18,8.0,North,9.2,-,0.01,,Overcast,10,2013-11-26 03:53:00
10:53 PM,34.0,32.0,92,30.18,10.0,North,9.2,-,N/A,,Overcast,360,2013-11-26 04:53:00
11:53 PM,34.0,32.0,92,30.15,10.0,North,12.7,-,0.00,Rain,Light Rain,10,2013-11-26 05:53:00